Temp
-15 -15 -15 -14 -14 -14 -14 -14 -14 -14 -14 -14 -15 -15 -15 -15 -15 -15 -16 -16 -16 -16 -16 -16 -17 -17 -17 -17 -17 -18 -18 -18 -18 -18 -19 -19 -19 -19 -20 -20 -20 -20
-15 -15 -15 -15 -15 -15 -15 -15 -15 -15 -15 -15 -15 -15 -15 -16 -16 -16 -16 -16 -17 -17 -17 -17 -17 -18 -18 -18 -18 -18 -18 -19 -19 -19 -19 -20 -20 -20 -20 -20 -21 -21
-15 -15 -15 -15 -15 -15 -15 -15 -15 -15 -15 -16 -16 -16 -16 -16 -16 -17 -17 -17 -17 -17 -17 -18 -18 -18 -19 -19 -19 -19 -19 -19 -20 -20 -20 -20 -20 -20 -21 -21 -21 -22
-16 -16 -16 -16 -15 -16 -16 -16 -16 -16 -16 -16 -16 -16 -16 -17 -17 -17 -17 -17 -18 -18 -18 -18 -19 -19 -19 -19 -19 -20 -20 -20 -20 -20 -20 -21 -21 -21 -21 -21 -22 -22
-16 -16 -16 -16 -16 -16 -16 -16 -16 -16 -16 -16 -17 -17 -17 -17 -18 -18 -18 -18 -18 -19 -19 -19 -19 -19 -20 -20 -20 -20 -20 -21 -21 -21 -21 -21 -21 -22 -22 -22 -22 -23
-17 -17 -17 -17 -16 -17 -17 -17 -17 -17 -17 -17 -17 -18 -18 -18 -18 -18 -19 -19 -19 -19 -19 -20 -20 -20 -20 -20 -21 -21 -21 -21 -21 -21 -22 -22 -22 -22 -22 -23 -23 -23
-17 -17 -17 -17 -17 -17 -17 -17 -17 -17 -17 -18 -18 -18 -19 -19 -19 -19 -19 -20 -20 -20 -20 -20 -20 -21 -21 -21 -21 -22 -22 -22 -22 -22 -22 -22 -22 -23 -23 -23 -23 -24
-17 -17 -17 -17 -17 -17 -17 -18 -18 -18 -18 -19 -19 -19 -19 -20 -20 -20 -20 -20 -21 -21 -21 -21 -21 -21 -21 -22 -22 -22 -22 -22 -22 -22 -23 -23 -23 -23 -24 -24 -24 -24
-18 -18 -17 -18 -18 -18 -18 -18 -18 -19 -19 -19 -20 -20 -20 -20 -20 -21 -21 -21 -21 -21 -21 -22 -22 -22 -22 -22 -22 -23 -23 -23 -23 -23 -23 -23 -24 -24 -24 -25 -25 -25
-18 -18 -18 -18 -18 -18 -19 -19 -19 -19 -20 -20 -20 -20 -21 -21 -21 -21 -21 -22 -22 -22 -22 -22 -22 -23 -23 -23 -23 -23 -23 -23 -23 -23 -23 -24 -24 -24 -25 -25 -25 -25
-18 -18 -19 -19 -19 -19 -19 -19 -20 -20 -20 -21 -21 -21 -21 -21 -22 -22 -22 -22 -22 -22 -22 -23 -23 -23 -23 -23 -23 -23 -23 -23 -24 -24 -24 -24 -25 -25 -25 -26 -26 -26
-19 -19 -19 -19 -19 -19 -20 -20 -20 -20 -21 -21 -21 -21 -22 -22 -22 -22 -22 -22 -23 -23 -23 -23 -23 -23 -24 -24 -24 -24 -24 -24 -24 -24 -25 -25 -25 -26 -26 -26 -26 -26
-20 -20 -20 -20 -20 -20 -20 -20 -21 -21 -21 -21 -22 -22 -22 -22 -22 -22 -23 -23 -23 -23 -23 -24 -24 -24 -24 -24 -24 -24 -24 -24 -25 -25 -25 -26 -26 -26 -27 -27 -27 -27
-20 -20 -20 -20 -20 -20 -21 -21 -21 -21 -22 -22 -22 -22 -22 -23 -23 -23 -23 -23 -23 -24 -24 -24 -24 -24 -24 -25 -25 -25 -25 -25 -25 -25 -26 -26 -27 -27 -27 -27 -27 -27
-20 -20 -20 -20 -21 -21 -21 -21 -22 -22 -22 -22 -22 -23 -23 -23 -23 -23 -24 -24 -24 -24 -24 -25 -25 -25 -25 -25 -25 -25 -25 -25 -26 -26 -26 -27 -27 -27 -28 -28 -28 -28
-20 -21 -21 -21 -21 -21 -21 -22 -22 -22 -22 -22 -23 -23 -23 -23 -23 -24 -24 -24 -24 -25 -25 -25 -25 -25 -25 -25 -25 -26 -26 -26 -26 -27 -27 -27 -28 -28 -28 -28 -28 -28
-21 -21 -21 -21 -21 -22 -22 -22 -22 -22 -23 -23 -23 -23 -23 -24 -24 -24 -24 -25 -25 -25 -25 -25 -26 -26 -26 -26 -26 -26 -26 -26 -27 -27 -27 -28 -28 -28 -28 -28 -29 -29
-21 -21 -22 -22 -22 -22 -22 -22 -23 -23 -23 -23 -23 -24 -24 -24 -24 -25 -25 -25 -25 -26 -26 -26 -26 -26 -26 -26 -26 -27 -27 -27 -27 -28 -28 -28 -28 -29 -29 -29 -29 -29
-22 -22 -22 -22 -22 -23 -23 -23 -23 -23 -23 -24 -24 -24 -24 -25 -25 -25 -25 -26 -26 -26 -26 -26 -27 -27 -27 -27 -27 -27 -27 -28 -28 -28 -28 -29 -29 -29 -29 -29 -29 -29
-22 -22 -22 -23 -23 -23 -23 -23 -24 -24 -24 -24 -24 -24 -25 -25 -26 -26 -26 -26 -26 -27 -27 -27 -27 -27 -27 -27 -28 -28 -28 -28 -28 -29 -29 -29 -29 -29 -29 -29 -29 -30
-23 -23 -23 -23 -23 -23 -24 -24 -24 -24 -24 -25 -25 -25 -26 -26 -26 -26 -27 -27 -27 -27 -27 -27 -28 -28 -28 -28 -28 -28 -29 -29 -29 -29 -29 -29 -29 -30 -30 -30 -30 -30
-23 -23 -23 -23 -24 -24 -24 -24 -24 -25 -25 -25 -26 -26 -26 -27 -27 -27 -27 -27 -28 -28 -28 -28 -28 -28 -29 -29 -29 -29 -29 -29 -29 -30 -30 -30 -30 -30 -30 -30 -30 -30
-23 -23 -24 -24 -24 -24 -24 -25 -25 -25 -26 -26 -26 -27 -27 -27 -27 -28 -28 -28 -28 -28 -28 -29 -29 -29 -29 -30 -30 -30 -30 -30 -30 -30 -30 -30 -30 -30 -30 -30 -30 -30
-24 -24 -24 -24 -24 -25 -25 -25 -26 -26 -26 -27 -27 -27 -27 -28 -28 -28 -28 -28 -29 -29 -29 -29 -30 -30 -30 -30 -31 -31 -31 -31 -31 -31 -31 -31 -31 -31 -31 -31 -31 -31
-24 -24 -25 -25 -25 -25 -25 -26 -26 -27 -27 -27 -27 -28 -28 -28 -28 -28 -29 -29 -29 -29 -30 -30 -30 -30 -31 -31 -31 -31 -31 -31 -31 -31 -31 -31 -31 -31 -31 -31 -31 -31
-25 -25 -25 -25 -25 -26 -26 -26 -27 -27 -27 -28 -28 -28 -28 -29 -29 -29 -29 -30 -30 -30 -30 -30 -31 -31 -31 -31 -31 -31 -32 -32 -32 -32 -32 -32 -32 -31 -31 -32 -32 -32
Height
5629 5627 5626 5624 5623 5621 5620 5618 5616 5615 5613 5611 5609 5606 5604 5601 5598 5595 5592 5589 5586 5582 5578 5575 5571 5568 5564 5560 5556 5551 5547 5544 5540 5536 5533 5529 5525 5521 5517 5514 5510 5507
5620 5619 5617 5616 5614 5613 5611 5609 5607 5605 5603 5601 5599 5596 5593 5590 5587 5584 5580 5577 5574 5570 5567 5564 5560 5557 5553 5548 5544 5540 5536 5533 5529 5525 5522 5518 5515 5511 5507 5503 5500 5496
5612 5611 5609 5607 5606 5604 5602 5600 5598 5595 5593 5591 5588 5585 5582 5579 5576 5573 5570 5566 5562 5559 5556 5552 5549 5545 5542 5538 5533 5529 5526 5522 5518 5514 5511 5508 5505 5501 5497 5494 5490 5487
5604 5602 5601 5599 5597 5595 5592 5590 5588 5586 5583 5580 5578 5575 5572 5569 5566 5562 5559 5556 5552 5549 5545 5542 5538 5534 5530 5527 5523 5519 5515 5511 5507 5504 5499 5496 5493 5489 5486 5483 5480 5477
5595 5593 5592 5589 5587 5585 5583 5581 5578 5576 5573 5570 5568 5565 5562 5558 5555 5552 5548 5545 5542 5538 5534 5531 5527 5523 5518 5515 5511 5508 5504 5501 5497 5493 5489 5485 5482 5478 5475 5471 5468 5466
5586 5584 5582 5580 5578 5576 5573 5571 5569 5566 5564 5561 5558 5555 5552 5548 5545 5541 5538 5535 5531 5527 5523 5519 5515 5511 5507 5504 5500 5497 5493 5490 5486 5483 5479 5476 5472 5469 5466 5462 5459 5456
5577 5575 5573 5571 5569 5566 5564 5562 5559 5557 5554 5551 5548 5545 5542 5538 5535 5532 5528 5524 5521 5516 5512 5508 5504 5500 5497 5493 5489 5486 5482 5479 5475 5472 5468 5465 5462 5458 5456 5453 5450 5447
5568 5566 5564 5562 5560 5557 5555 5553 5550 5548 5545 5542 5539 5535 5532 5528 5525 5522 5518 5514 5510 5506 5502 5498 5494 5490 5487 5483 5480 5476 5472 5469 5465 5461 5457 5454 5451 5448 5445 5442 5439 5437
5560 5558 5556 5553 5551 5549 5546 5544 5541 5539 5536 5532 5529 5525 5522 5519 5515 5511 5508 5504 5500 5495 5492 5488 5484 5481 5477 5474 5470 5466 5462 5459 5455 5452 5448 5444 5441 5438 5435 5432 5429 5427
5552 5549 5547 5545 5542 5540 5538 5535 5532 5529 5526 5522 5519 5515 5512 5509 5505 5502 5498 5494 5490 5485 5482 5478 5474 5471 5467 5464 5461 5457 5454 5449 5445 5442 5439 5435 5432 5428 5425 5423 5420 5417
5543 5541 5538 5536 5534 5531 5528 5526 5523 5519 5516 5512 5509 5506 5503 5499 5495 5492 5488 5484 5480 5476 5472 5468 5464 5461 5457 5454 5451 5448 5444 5440 5436 5432 5429 5425 5422 5419 5416 5413 5411 5408
5534 5532 5530 5527 5525 5522 5519 5516 5513 5510 5506 5503 5500 5496 5493 5489 5485 5481 5477 5473 5469 5465 5461 5457 5453 5450 5447 5444 5441 5438 5434 5431 5427 5423 5419 5416 5412 5409 5407 5404 5402 5399
5525 5523 5521 5518 5515 5512 5509 5506 5503 5500 5496 5493 5490 5486 5482 5478 5474 5470 5466 5462 5458 5453 5450 5446 5443 5439 5436 5433 5430 5427 5424 5420 5417 5413 5410 5406 5402 5399 5397 5395 5392 5390
5516 5514 5511 5508 5506 5503 5499 5496 5493 5490 5486 5483 5480 5476 5472 5468 5463 5459 5454 5450 5446 5443 5439 5436 5433 5430 5426 5423 5420 5417 5414 5411 5407 5403 5399 5396 5392 5389 5387 5385 5383 5381
5507 5504 5501 5499 5496 5493 5490 5486 5483 5480 5476 5473 5469 5465 5461 5457 5452 5448 5444 5440 5436 5432 5429 5425 5422 5419 5416 5413 5410 5406 5404 5401 5397 5393 5390 5386 5383 5379 5377 5374 5373 5371
5497 5494 5492 5489 5486 5483 5480 5477 5473 5470 5466 5462 5458 5454 5449 5445 5441 5437 5433 5429 5426 5422 5418 5414 5411 5408 5405 5403 5400 5396 5393 5390 5387 5383 5380 5376 5373 5370 5367 5364 5362 5361
5488 5485 5483 5480 5477 5474 5470 5467 5463 5459 5455 5451 5447 5442 5438 5434 5430 5426 5422 5418 5416 5412 5408 5404 5400 5396 5394 5392 5389 5386 5383 5380 5377 5374 5370 5366 5363 5360 5358 5354 5352 5350
5479 5476 5473 5470 5467 5463 5460 5456 5452 5448 5444 5440 5436 5432 5427 5423 5419 5415 5412 5409 5406 5403 5399 5395 5391 5386 5383 5381 5378 5374 5371 5369 5367 5364 5361 5357 5352 5349 5347 5345 5343 5340
5470 5467 5463 5460 5457 5453 5449 5445 5441 5437 5433 5429 5425 5421 5417 5413 5408 5405 5402 5398 5395 5392 5389 5385 5380 5375 5372 5369 5367 5363 5360 5357 5356 5354 5351 5348 5343 5339 5336 5334 5333 5331
5460 5457 5453 5449 5446 5442 5439 5435 5430 5426 5421 5417 5413 5409 5404 5400 5396 5392 5389 5385 5382 5379 5377 5373 5368 5363 5360 5358 5355 5352 5349 5346 5345 5343 5341 5338 5335 5330 5326 5324 5322 5320
5450 5447 5443 5439 5435 5431 5427 5423 5418 5414 5409 5404 5400 5396 5391 5388 5384 5380 5377 5373 5369 5366 5365 5362 5357 5352 5349 5346 5344 5341 5338 5336 5334 5333 5330 5328 5325 5321 5317 5314 5311 5310
5440 5436 5432 5428 5424 5420 5416 5411 5407 5402 5397 5393 5390 5386 5382 5378 5374 5371 5368 5364 5360 5356 5353 5351 5346 5340 5336 5334 5331 5329 5326 5325 5324 5322 5320 5318 5315 5311 5307 5304 5302 5300
5430 5426 5422 5418 5413 5409 5405 5400 5396 5391 5387 5384 5381 5378 5374 5370 5366 5363 5359 5355 5351 5346 5342 5340 5336 5329 5324 5321 5319 5315 5314 5313 5312 5310 5309 5307 5305 5301 5297 5294 5291 5289
5419 5415 5411 5407 5402 5398 5394 5390 5385 5381 5377 5374 5371 5368 5365 5361 5357 5354 5350 5345 5341 5337 5332 5329 5325 5320 5313 5310 5306 5303 5301 5300 5299 5298 5297 5296 5293 5290 5287 5284 5281 5278
5407 5403 5399 5395 5391 5386 5382 5378 5374 5370 5366 5363 5359 5356 5354 5350 5346 5343 5339 5335 5330 5326 5321 5317 5314 5310 5304 5299 5296 5292 5289 5287 5286 5285 5285 5284 5282 5279 5277 5273 5270 5267
5396 5391 5387 5383 5379 5375 5371 5366 5362 5358 5355 5352 5348 5344 5341 5338 5334 5330 5327 5323 5318 5313 5309 5305 5301 5298 5294 5289 5286 5282 5278 5275 5274 5273 5272 5271 5270 5268 5266 5263 5259 5256
Wind_Speed
56 57 58 59 60 60 61 62 63 64 65 66 66 67 68 69 69 70 71 71 71 71 71 72 72 73 73 73 73 73 74 75 75 76 77 77 78 78 78 78 78 76
58 59 60 60 61 62 63 64 65 66 67 67 68 68 69 70 71 71 72 72 72 72 73 73 73 73 73 73 73 74 74 75 76 76 77 77 77 78 77 77 76 74
59 60 61 62 62 63 64 65 66 67 68 68 69 70 71 71 72 72 73 73 73 74 74 74 73 73 73 73 73 74 75 75 76 76 77 77 77 76 76 75 73 72
61 61 62 63 63 64 65 66 67 68 69 70 71 72 72 73 73 73 74 74 75 75 75 74 74 74 74 74 74 74 75 75 76 76 76 77 76 75 75 73 72 71
62 62 62 63 64 65 66 67 68 70 71 72 72 73 73 73 74 74 75 75 76 75 75 75 75 75 75 75 75 75 75 75 75 75 75 75 75 74 73 72 71 69
62 63 63 64 65 66 67 69 70 71 72 73 73 73 73 74 74 75 76 76 76 76 76 76 76 76 76 76 76 75 75 74 74 74 74 73 72 72 71 70 69 68
62 63 64 65 66 67 69 70 71 72 72 73 73 73 74 74 75 76 76 77 77 77 77 77 77 77 77 76 76 75 75 74 74 74 73 72 71 71 70 69 67 66
63 64 66 67 68 68 70 71 71 72 72 73 73 73 74 75 75 76 77 77 77 77 77 77 77 77 76 76 75 75 74 74 74 73 73 72 71 70 69 68 67 66
64 66 67 67 68 69 70 71 71 72 72 73 73 74 74 75 76 77 77 77 77 77 77 77 77 76 75 75 74 74 74 73 73 73 72 72 71 70 69 68 67 66
65 66 67 68 69 70 70 71 72 72 72 73 74 75 76 77 77 78 78 78 77 77 77 76 76 75 75 74 73 73 73 73 73 73 72 72 71 70 69 67 66 65
65 66 67 68 69 70 71 72 72 72 73 74 75 76 77 78 78 78 78 78 77 77 77 76 75 75 74 73 73 72 72 72 73 73 73 72 71 69 68 67 66 65
65 66 68 69 70 71 72 72 73 74 74 75 76 77 78 79 79 79 79 79 78 77 76 76 75 74 74 73 73 73 73 73 73 73 73 72 70 69 67 66 66 65
66 67 68 70 71 72 72 73 74 75 75 76 77 78 79 80 80 80 80 79 78 77 76 76 75 74 74 74 74 74 73 73 74 73 73 71 70 68 67 66 65 64
67 69 70 71 72 73 74 75 75 76 77 77 79 80 80 81 81 80 80 79 78 77 77 76 75 75 75 75 75 74 74 74 74 73 72 71 69 68 67 66 65 64
69 70 71 72 73 74 75 76 77 77 78 79 80 81 82 82 81 81 80 79 78 77 77 76 76 76 75 75 75 75 75 74 74 73 72 70 68 68 67 67 65 64
70 72 73 74 75 76 77 77 78 79 80 81 82 82 83 82 82 81 80 78 78 77 77 77 77 77 77 76 76 76 75 75 74 73 71 70 68 68 67 67 66 64
72 73 74 75 76 77 78 79 79 80 81 82 83 83 83 83 82 81 80 79 78 77 77 78 78 78 78 77 77 77 76 76 74 72 71 69 68 68 67 67 66 65
74 75 76 77 78 79 79 80 81 82 82 83 84 84 83 82 81 80 80 79 79 78 78 78 78 79 79 78 78 77 77 76 74 72 70 68 68 68 67 67 66 66
75 76 77 78 79 80 81 81 82 83 83 84 84 84 83 82 81 81 80 79 79 79 78 78 79 79 79 78 78 78 77 76 74 71 69 67 67 68 68 67 67 66
76 78 79 80 81 81 82 82 83 84 85 85 85 84 83 82 82 81 81 81 81 80 80 79 80 80 80 79 79 78 77 76 73 71 69 67 66 67 67 67 67 66
78 79 80 81 82 82 83 83 84 85 85 85 85 84 83 82 82 82 82 82 82 82 81 80 80 81 81 80 80 79 77 75 73 70 68 67 66 66 66 66 66 66
80 81 82 82 83 83 84 84 85 85 85 84 83 82 81 81 81 82 82 82 82 82 82 81 81 81 81 81 80 78 77 74 72 69 67 66 65 64 65 65 66 66
81 82 82 83 83 84 84 85 85 84 83 83 82 81 81 81 81 81 82 82 82 81 81 80 80 80 81 80 79 78 76 73 71 69 67 65 64 64 65 65 66 66
82 83 83 84 85 85 85 85 84 84 83 82 82 82 81 82 82 82 82 82 81 81 80 80 79 79 79 79 78 77 75 73 72 70 68 66 65 65 66 66 67 67
83 84 85 85 86 86 86 85 84 84 84 83 83 83 83 83 83 82 82 81 81 80 80 80 79 79 79 79 78 77 76 75 73 71 69 68 67 67 67 67 67 68
84 85 86 87 87 86 86 85 85 85 85 84 84 84 84 83 83 83 82 81 81 81 81 81 80 80 79 79 78 77 77 76 75 73 71 70 69 68 68 68 68 68
Wind_Direction
283 284 285 286 287 288 289 290 291 291 291 292 292 293 293 294 294 295 296 297 298 298 298 299 299 298 298 298 298 298 298 297 297 296 295 294 294 293 293 292 292 291
286 286 287 288 289 290 291 292 293 293 294 294 295 295 295 296 297 298 299 300 300 300 300 300 300 299 299 299 299 299 298 298 297 296 295 294 294 293 293 292 292 291
287 288 289 290 291 293 294 294 295 295 295 296 296 297 297 298 299 300 301 301 302 302 301 301 300 300 300 300 300 299 298 298 297 296 295 294 293 293 292 292 291 290
289 290 291 293 294 295 295 295 296 296 296 297 297 298 299 300 300 301 302 302 302 302 302 301 301 301 301 301 300 299 299 298 297 296 295 295 294 294 293 293 292 291
290 292 293 295 295 296 296 296 296 296 297 298 298 299 300 301 301 302 302 303 303 303 302 302 302 302 302 302 301 300 299 298 297 296 296 295 295 295 294 294 293 292
292 294 295 295 296 296 296 296 296 297 298 298 299 300 301 301 302 303 303 303 303 303 303 303 303 303 303 302 301 300 299 298 297 297 296 295 295 295 294 293 293 292
294 295 295 295 295 296 296 296 297 297 298 299 300 300 301 302 302 303 303 304 304 304 304 304 304 303 303 302 301 300 300 299 298 298 297 296 296 295 294 293 292 291
294 294 295 295 295 295 295 296 297 297 298 299 300 300 301 302 303 303 304 304 304 304 304 304 303 303 302 302 301 300 299 299 298 298 298 298 297 296 295 294 293 292
293 293 294 294 294 295 295 296 297 298 298 299 300 301 301 302 303 304 304 304 304 304 303 303 303 302 302 301 300 300 299 299 299 298 298 298 297 296 295 294 293 292
292 292 293 293 294 295 295 296 297 298 298 299 300 301 301 302 303 304 304 304 304 303 303 302 302 301 301 300 300 299 299 299 299 299 298 297 296 295 294 293 292 291
291 292 292 293 294 295 295 296 297 298 299 299 300 301 302 303 303 304 304 304 303 303 302 302 301 301 300 300 299 299 298 299 299 299 298 297 296 294 293 292 291 291
291 292 292 293 294 295 296 297 297 298 299 299 300 301 302 303 303 304 304 303 303 303 302 302 301 301 300 300 299 299 299 299 299 299 298 297 295 293 292 291 290 290
291 291 292 293 294 295 296 297 298 298 299 299 300 301 302 303 304 304 304 304 303 303 303 302 301 301 300 300 300 299 299 299 299 299 298 296 294 292 291 290 289 289
291 292 293 294 295 296 297 297 298 298 299 300 300 302 303 304 304 304 304 304 303 303 302 302 301 301 300 300 300 299 299 299 299 299 297 295 293 291 289 288 288 287
292 293 294 295 296 296 297 297 298 298 299 300 301 302 303 304 304 304 304 303 303 303 302 301 301 300 300 300 299 299 299 299 299 298 296 294 292 290 289 288 287 286
293 294 294 295 296 296 297 297 297 298 299 301 302 303 304 304 304 304 303 303 303 302 302 301 301 300 299 299 299 299 299 299 298 297 296 294 292 290 288 287 286 286
293 294 294 295 295 296 296 297 298 299 300 302 303 304 304 304 304 303 303 303 302 302 301 301 300 300 299 299 299 299 299 298 298 297 295 294 291 289 288 287 286 285
293 294 294 295 296 296 297 298 299 300 301 302 303 304 304 303 303 302 302 301 301 301 300 300 299 299 299 299 299 299 298 298 297 296 294 293 291 289 288 286 286 285
293 294 295 295 296 296 297 298 300 301 302 302 303 303 303 302 302 302 301 301 301 300 300 299 299 298 299 299 299 299 298 297 296 295 293 292 290 289 288 286 285 284
294 294 295 295 296 297 298 299 300 301 302 302 303 303 303 302 302 302 302 302 301 300 300 299 299 299 299 299 298 298 297 296 295 294 292 291 289 288 287 286 285 284
294 294 295 296 297 298 299 300 301 302 303 303 304 303 303 303 303 302 302 301 301 300 299 299 299 299 299 298 298 297 296 295 294 292 291 290 288 287 286 285 284 283
294 294 295 296 298 299 300 301 302 303 303 303 303 302 302 302 301 301 300 299 299 299 298 299 299 298 298 298 297 296 295 294 293 291 290 289 287 286 285 284 284 283
294 295 296 297 298 300 301 301 302 302 301 301 301 300 300 300 299 299 298 298 297 297 298 298 298 298 298 298 297 296 294 293 292 291 289 288 287 286 285 284 284 283
294 296 297 298 299 300 301 301 301 300 300 300 300 299 299 299 298 297 297 296 296 297 297 298 298 298 297 297 296 295 294 293 292 291 290 289 288 286 285 285 284 283
296 297 298 299 300 300 300 300 300 299 299 299 299 299 299 298 297 297 296 296 296 297 297 297 297 297 296 296 295 294 293 292 291 291 290 289 288 286 285 284 283 282
297 298 299 299 300 300 300 299 299 299 299 299 299 299 298 297 297 297 297 297 297 297 298 297 297 296 295 295 294 293 292 291 291 291 290 289 287 286 285 284 282 281